Regional Weather Roundup
Issued by NWS Northern Indiana

Home | Current Version | Previous Version | Graphics & Text | Print | Product List | Glossary On
Versions: 1 2 3 4 5 6 7 8 9 10 11 12 13 14 15 16 17 18 19 20 21 22 23 24 25 26 27 28 29 30 31 32 33 34 35 36 37 38 39 40 41 42 43 44 45 46 47 48 49 50
000
ASUS43 KIWX 270300
RWRIWX

KIWX WEATHER ROUNDUP
NATIONAL WEATHER SERVICE NORTHERN INDIANA
1100 PM EDT SUN APR 26 2015

NOTE: "FAIR" INDICATES FEW OR NO CLOUDS BELOW 12,000 FEET WITH NO
SIGNIFICANT WEATHER AND/OR OBSTRUCTIONS TO VISIBILITY.

* THESE STATIONS ARE NOT UNDER NWS QUALITY CONTROL. THEY ALSO MAY NOT
  REPORT WEATHER SUCH AS PRECIPITATION OR FOG.

INZ001>027-270400-
NORTHERN INDIANA

CITY           SKY/WX    TMP DP  RH WIND       PRES   REMARKS
GARY*          PTCLDY    45  27  49 N13       30.03R
SOUTH BEND     CLEAR     43  26  51 NW10      29.98R
GOSHEN         MOCLDY    44  28  53 NW6       29.95R
ANGOLA*        CLOUDY    48  37  66 NW6       29.92S
FORT WAYNE     CLOUDY    49  32  52 NW12      29.94R
PERU/GRISSOM   CLEAR     44  29  56 NW8       29.95S

$$
INZ028>050-270400-
CENTRAL INDIANA

CITY           SKY/WX    TMP DP  RH WIND       PRES   REMARKS
LAFAYETTE      CLEAR     42  29  59 N7        29.99R
KOKOMO*        CLEAR     45  30  57 NW7       29.96R
MUNCIE*        CLOUDY    50  36  58 N15       29.93R
INDIANAPOLIS   PTCLDY    48  33  56 N14       29.95R

$$
MIZ043>046-050>051-056>058-064>065-071>073-077>080-270400-
SOUTHWEST LOWER MICHIGAN

CITY           SKY/WX    TMP DP  RH WIND       PRES   REMARKS
BATTLE CREEK   CLEAR     50  27  40 N12       29.94R
BENTON HARBOR  PTCLDY    40  32  73 VRB5      29.98R
COLDWATER*     CLOUDY    49  29  46 NW7       29.92S
HILLSDALE*     CLOUDY    47  33  59 CALM      29.91S
HOLLAND        CLEAR     47  27  45 NW5       29.98R
GRAND RAPIDS   CLEAR     46  29  51 N10       29.97R
KALAMAZOO      CLEAR     45  29  53 N9        29.95R
STURGIS*       CLEAR     46  28  49 CALM      29.93R
THREE RIVERS*  FAIR      45  28  51 NW7       29.94S

$$
OHZ001>008-015>018-024>025-270400-
NORTHWEST OHIO

CITY           SKY/WX    TMP DP  RH WIND       PRES   REMARKS
DEFIANCE       CLOUDY    50  34  54 CALM      29.92R
FINDLAY        PTCLDY    47  32  56 E6        29.90S
TOLEDO EXPRESS CLOUDY    47  33  58 E5        29.91R
TOLEDO METCALF PTCLDY    45  34  65 E5        29.93R
LIMA           CLOUDY    48  37  65 E3        29.91R

$$
AND FOR LAKE MICHIGAN COASTAL AND OPEN LAKE BUOY OBSERVATIONS

STATION/POSITION TEMP    WIND        PRES    VSBY  WAVE
                 AIR SEA DIR/SP/G                  HT/PER
                 (F)     (DEG/KT/KT) (MB)    (MI)  (FT/S)
CALUMET HARBOR    44     330/  8/ 13   N/A
MICHIGAN CITY     42     360/  7/  9   N/A
BURNS HARBOR      42     340/ 10/ 12 1016.6S
SAINT JOSEPH      43      10/  7/ 13 1015.9R
MICHIGAN CITY     41 45  340/  8/ 10   N/A           3/ 5

$$
&&


USA.gov is the U.S. government's official web portal to all federal, state and local government web resources and services.